CAPE
1526 2170 1688 1728 1703 1816 2087 2336 2296 2511 2762 2866 2789 2775 2908 2943 2573 2412 2675 2697 2641 2799 2913 3052 3343 3215 3142 3139 2957 3006 3768 3750 3713 3953 3832 4280 3718 3817 4367 5092 4500 4240 4187 4092 3600 3651 3784 3430 3354 3267 3354 3114 2576 2194 1790 1532 1698 1951 2187 2409 2164 2197 2400 2747 2928 3025 3202 2912 2734 2683 2504 2461 2181 2580 2501 2331 2144 2359 2123 2421 2492 2354 2157 1860 1703
1766 2150 1950 1744 1703 1859 1700 1885 2082 1932 2168 2574 2539 2509 2804 3057 3095 2965 2898 3063 3011 2627 2847 2814 3002 3166 3104 3190 3126 3302 3517 3926 3842 3450 3833 3924 4100 3518 3435 3680 4358 3798 4306 4421 4173 3293 3319 3563 3275 2857 2834 3012 2748 2372 1997 1640 1717 1698 1816 2121 2388 2708 2582 2700 3018 3137 3188 3052 2984 3004 2730 2497 2488 2530 2522 2580 2573 2632 2669 2668 2335 1916 1592 1726 1610
1654 2392 2313 2053 2143 1866 1531 1415 1753 1600 1566 1971 2221 2123 2532 2998 3008 3061 2661 2685 2890 2814 2821 2669 3064 3369 3280 3391 3951 3732 4298 3845 3433 3915 3830 3915 3978 3403 3216 3904 4142 4144 4327 4040 3766 4035 3430 3295 2982 2886 2579 2577 2752 2504 2340 2130 1956 1991 1894 1939 2099 2110 2223 2731 3034 3124 3091 3197 3214 2776 2502 2572 2682 2528 2634 2568 2845 2843 2936 2702 2065 1712 1838 1771 1663
2518 2865 2809 2225 1952 1796 1835 1410 1006 976 889 1107 1381 1794 2028 2252 2664 2793 2520 2476 2740 2876 2933 2904 3418 3691 3716 3998 4393 4106 4165 3980 4002 3894 3877 3881 3892 3993 3755 3716 3745 3678 3723 3743 3752 3944 3636 3351 2936 2538 3030 3109 3044 3008 2745 2957 2918 2809 2778 2677 2659 2708 2809 2891 3148 3284 3108 3020 3301 3314 3184 3035 2935 2642 2542 2535 2643 2631 2678 2444 2420 2017 1794 1545 1399
3040 3211 3262 2888 2179 1658 1676 1323 1094 895 598 526 731 933 1107 1462 2006 1644 1972 2112 2496 2817 3052 3340 3576 4040 3468 3726 3991 4094 3966 3975 4189 3495 3705 3737 3733 3582 3744 3839 3914 3744 3474 3520 3609 3567 3614 3349 2953 2860 3059 2888 3120 3140 3397 3824 3790 3344 3315 3317 3328 3174 3262 3108 3192 3360 3416 3453 3374 3487 3445 3255 3153 3072 2926 2716 2530 2176 2089 2281 2434 2206 2346 2120 1336
3343 3468 3377 3097 2859 2006 1777 1468 1074 902 744 536 471 550 479 496 855 1266 1164 1673 2279 2527 2986 3035 3331 3778 3652 3621 3804 4009 3946 4156 4122 3987 3497 3548 3420 3395 3551 3677 3476 3731 3717 3496 3403 3464 3512 3906 3801 3373 3250 2943 2723 2908 3160 3636 3506 3246 3716 3778 3757 3897 4242 4090 3780 3852 3884 3704 3642 3398 3276 2908 3005 3269 3265 3179 2707 2044 2096 2156 1993 2063 2453 2263 1980
3613 3350 3051 3098 3217 2682 2360 1892 1511 1028 950 850 619 564 512 440 475 594 792 935 1577 1928 2264 2839 3102 3291 3576 3512 3404 3580 3850 3571 3802 3873 3611 3436 3386 3551 3252 3352 3398 3367 3423 2835 2403 2702 3077 3244 3547 3443 3656 3767 3267 3421 3470 3673 3478 3789 4087 3853 3840 3972 3558 3646 3853 3944 3797 3412 3172 3023 3002 3022 2879 2794 2658 3164 3818 4359 4027 3175 3043 2352 2301 2681 2792
3442 3181 2930 2822 3218 3159 3077 2747 2202 1784 1325 1367 1301 1064 902 680 582 507 627 844 972 1102 1371 1774 2354 2601 2804 2903 3013 2975 3322 3563 3886 4025 3787 3353 3172 3322 3160 2911 2835 3027 3175 2862 2575 2374 2520 2420 2526 2970 3275 3525 3420 3604 3596 3422 3764 3852 3465 3650 4065 3967 3802 3341 3285 3477 3342 3126 2995 2700 2868 2930 3094 3551 3441 3615 4275 3476 1996 1408 1720 2272 2503 2691 2808
3361 3178 3021 2862 3130 3169 3061 3049 2977 2628 2084 2356 2412 1995 1508 1430 1392 1407 1376 1308 974 920 1035 1130 1601 2006 2030 2172 2278 2457 2487 3022 3192 3391 3158 3265 3068 2970 2989 3078 2850 2776 2779 2623 2519 2679 2578 2267 2050 2094 2224 2378 3109 3617 3456 3830 3037 2560 2794 2872 3359 3862 3914 3669 3749 3685 3521 3279 3226 3150 2741 2524 2467 2427 1935 1792 1840 1798 1509 1490 2055 2171 1790 1648 2029
3429 3128 2988 2926 3079 3299 3378 3427 3470 3805 3194 2816 2881 2730 2351 2097 1951 1940 1977 1961 1709 1668 1592 1602 1662 1802 2062 2134 2154 2112 2116 2351 2701 2904 2745 2986 3291 2905 2848 3083 3166 2959 2812 2858 2497 2384 2306 2098 1713 1910 3116 3131 3766 4420 3261 2753 2663 3074 3241 3071 3064 3093 3203 3139 3156 3135 3075 3057 3057 2573 2091 1874 1646 1434 1260 1353 1184 920 714 1097 1589 1916 1956 2174 2456
3190 2764 2940 3097 3394 3119 3264 3052 3533 4014 4117 3709 3517 3519 3488 3150 2754 2619 2367 2436 2358 2472 2271 1947 1757 1403 1424 1496 1763 1582 1750 1954 2426 2130 1817 1315 2264 2392 2592 2808 3135 3207 2727 2601 2458 1953 1675 1671 1827 1991 3672 4237 3855 3768 3603 2885 2502 2310 2144 2107 2728 3424 3058 3000 2871 2750 2653 2512 2300 1965 1799 1921 2076 2012 1620 859 453 679 1046 1600 1866 1911 2408 2436 2323
2632 2636 3149 2820 2944 2924 2582 2384 2407 2589 2949 3576 4402 4013 3898 3887 3921 3613 3024 2690 2796 2560 2381 2069 2118 1697 1357 1287 1065 1237 1891 1743 1726 1515 1115 1260 1661 2780 1940 1929 1914 2102 2028 1782 1930 1698 1686 1787 1534 1446 1571 1498 2500 4406 4113 3301 2823 2752 2562 2381 2214 2053 2170 3250 3237 3026 2952 2783 2715 2472 2290 2060 1895 1839 1121 724 1362 1822 2405 2610 2573 2573 2414 2369 2284
1813 2031 1779 2074 1987 2002 1912 1901 1750 1771 2036 2491 3169 3656 3676 3745 3603 3365 3045 2980 2698 2558 2325 2194 2348 2214 1729 1887 1647 1760 1955 1521 1152 878 698 665 807 1176 2078 1591 1662 1607 1542 1945 1973 2401 2790 2607 2101 1575 1206 2840 2932 3043 3852 4669 3961 3196 3073 3009 2781 2444 2141 1852 1770 3181 3056 3077 3052 2857 2502 2135 2288 2340 2149 2804 3661 3625 3482 2636 2474 2469 2324 2310 2419
1725 1720 1694 1769 1867 1718 1870 1759 2047 2118 1956 2057 2421 2780 2497 2187 2349 2016 2063 2586 2523 2546 2206 2138 2137 2380 2369 2226 2658 2026 1575 1150 1298 1128 1123 861 885 935 1960 1875 1633 1535 1655 2106 1826 1995 2532 2634 2717 2835 2558 2824 3547 3728 3985 4106 4225 4328 4689 4178 4154 4137 3530 2764 2468 2280 2184 2429 2731 2973 3082 3316 3170 3275 3469 3660 3857 3935 3905 3848 3627 3188 2801 2771 2956
1382 1410 1535 1649 1708 1689 1737 1780 1750 1710 1605 1664 1683 1512 1497 1421 1433 1538 1718 1677 1938 2312 2147 2181 2049 2259 2439 2659 2122 1531 1443 1376 1288 1366 1312 1296 1099 1120 1959 1642 1174 1252 1878 2279 2911 2832 3090 2853 2690 2714 2929 3543 3813 4271 3963 3642 3542 3665 4001 3999 3784 3323 2829 2670 2831 2926 2862 2334 2730 2996 3118 3160 3446 3514 3557 3368 3535 3472 3270 3386 3391 3257 3132 3430 3271
1097 1243 1112 2123 2259 2228 2163 2051 1729 1563 1480 1435 862 804 897 1026 1233 1367 1023 1031 1716 1856 2286 2159 2182 2257 2454 2354 1517 1280 1449 1486 1471 1361 1386 1410 1396 1643 2666 2574 1878 1962 2133 2616 2819 3079 2902 2798 3016 2938 3515 3673 3286 2527 2155 2730 2503 2845 3210 3509 3554 3456 3059 2526 3266 2976 2866 2021 1906 2012 2084 2040 1705 1780 1874 1353 1737 1876 1822 1754 1862 2131 2443 2534 2482
816 829 875 831 1129 1379 1147 903 855 830 715 583 571 701 773 855 940 964 794 1391 1639 1923 1488 1594 1940 2024 1707 1501 1410 1318 1429 1456 1440 1403 1262 1318 1405 2292 2894 2813 2753 2512 2349 3038 2751 2358 2388 2594 2966 3002 2841 2494 2353 1656 1174 1068 2229 2743 3111 3211 3190 2907 2318 2129 2462 2171 2058 1740 1428 1268 1225 1244 1301 1247 1213 1199 1188 1170 1171 1453 1670 1767 1874 2097 1988
695 685 584 729 670 665 627 517 596 596 628 648 679 698 675 733 817 826 846 962 980 1149 1244 1246 1042 1216 1232 1089 1338 1314 1256 1195 1177 1155 1103 1035 1139 1854 2551 2803 3032 2914 2948 3019 2671 2774 2899 2719 2633 2041 1891 1892 1796 1460 1294 1377 2427 2980 2612 2816 2841 2831 2778 2564 2092 2007 1611 1566 1709 1931 2143 2099 2060 1960 1853 1776 1575 1387 1256 1649 1748 1765 1556 1698 1799
509 250 493 543 622 620 628 565 621 660 679 757 709 677 658 679 717 769 734 751 812 918 913 860 841 850 822 1021 1082 1070 1052 1005 972 952 987 1017 1016 1812 2185 2288 1716 2608 2640 2644 2732 2698 2030 1746 1680 1540 1482 1508 1443 1400 1366 1357 1558 2411 2457 2702 2585 2583 2509 2497 2661 2667 2445 2383 2897 3012 2634 3030 2680 2604 2801 2665 2472 2139 1902 1746 1798 1954 1871 2430 2418
416 320 227 120 345 342 566 506 423 392 391 415 405 492 479 497 629 681 678 604 685 780 804 822 803 673 647 751 861 866 838 870 918 928 937 961 992 1015 1031 1395 1786 1708 1664 1535 1965 1957 1865 1567 1295 1245 1184 1110 1022 1030 1068 1086 1109 1146 1699 1996 2466 2645 1828 1640 1785 1989 2517 2236 2243 2331 2214 2399 2107 2237 2781 2772 2604 2454 2190 1989 2378 2458 2540 2859 2214
255 370 360 399 276 253 294 295 315 278 181 146 179 200 74 243 432 532 512 559 552 615 622 639 584 545 576 594 624 652 674 694 737 773 790 778 812 838 834 848 868 866 836 795 1011 958 828 946 855 817 759 759 834 902 951 1016 1053 1087 1081 1351 1234 1140 1254 1222 1429 1358 1982 2072 1596 1573 1903 1688 2186 2340 2486 2405 1780 1886 2038 2168 1907 2280 2078 2166 1986
199 247 223 0 169 165 2 15 234 244 226 101 0 0 0 0 0 0 188 237 246 332 400 405 388 370 329 308 304 330 363 400 441 506 542 562 571 543 548 566 593 595 614 606 555 543 583 583 627 611 604 586 593 618 625 604 607 614 649 690 852 1048 1106 1101 1002 1315 1502 1428 1304 1505 1522 1628 1289 1720 1741 1605 1511 2288 1659 2050 2287 1914 2480 1954 2052
193 120 135 98 11 54 0 0 49 172 172 91 0 0 0 0 0 0 121 167 245 301 195 189 227 226 182 174 157 151 164 182 221 245 252 257 304 372 405 340 365 385 401 378 374 378 342 339 353 362 337 267 227 177 143 132 176 267 350 404 460 552 600 516 924 1033 1095 1168 1098 1262 1138 984 1431 1792 1775 1799 1153 1889 1456 1362 1746 1836 1399 1779 2243
193 178 158 110 4 17 124 26 0 0 0 0 0 0 0 0 0 0 0 53 147 116 0 108 165 174 144 116 93 84 71 88 82 79 77 64 61 15 0 0 0 0 0 0 0 0 0 0 0 0 0 0 0 0 0 0 0 0 16 23 42 215 318 624 483 517 556 677 834 853 880 674 854 787 925 1005 908 866 1094 983 936 1194 1558 1501 1935
154 179 49 0 70 108 94 122 128 0 0 0 0 0 0 0 0 1 0 0 3 3 34 30 3 15 1 0 0 0 8 20 23 0 0 0 0 0 0 0 0 0 0 0 0 0 0 0 0 0 0 0 0 0 0 0 0 0 0 0 109 130 83 61 89 140 142 108 177 192 194 238 258 300 326 753 792 1012 1209 1169 1151 1218 1159 1314 1326
153 152 144 163 146 71 0 94 64 0 0 0 30 94 105 0 0 0 0 1 2 0 0 1 0 0 0 0 3 2 1 1 0 0 0 0 0 0 0 0 0 0 0 0 0 0 0 0 0 0 0 0 0 0 0 0 0 0 0 0 14 3 1 1 1 0 1 0 0 1 0 0 0 20 220 362 310 358 449 503 640 907 1032 1026 974
96 105 149 141 14 0 0 0 0 0 0 0 0 0 0 0 0 0 9 4 0 0 0 0 0 1 2 2 3 6 8 6 5 2 2 1 0 0 0 0 0 0 0 0 0 0 0 0 0 0 0 0 0 0 0 0 0 0 0 0 0 0 0 0 0 0 0 0 0 0 0 0 0 10 21 4 10 33 54 36 56 130 185 256 535
116 117 90 56 0 0 0 0 0 0 0 0 0 0 0 0 0 1 0 1 13 6 1 1 0 2 2 0 1 1 2 0 0 0 0 0 0 0 0 0 0 0 0 0 0 0 0 0 0 0 0 0 0 0 0 0 0 0 0 0 0 0 0 0 0 0 0 0 0 0 0 0 0 0 0 0 3 10 3 0 0 0 0 0 3
67 110 3 2 2 1 0 0 0 0 0 0 0 0 0 0 0 0 0 0 0 0 1 0 0 0 0 1 0 0 0 0 0 0 0 0 0 0 0 0 0 0 0 0 0 0 0 0 0 0 0 0 0 0 0 0 0 0 0 0 0 0 0 0 0 0 0 0 0 0 0 0 0 0 0 1 4 0 0 0 0 0 0 0 0
86 93 43 34 7 2 1 0 2 0 0 0 0 0 0 0 0 0 0 0 0 0 0 0 0 0 0 0 0 1 0 0 0 0 0 0 0 0 0 0 0 0 0 0 0 0 0 0 0 0 0 0 0 0 0 0 0 0 0 0 0 0 0 0 0 0 0 0 0 0 0 0 0 0 0 0 0 0 0 0 0 0 0 0 0
10 12 9 10 10 11 9 12 9 8 9 6 0 0 0 0 0 0 0 0 0 0 0 0 0 0 0 0 0 0 0 0 0 0 0 0 0 0 0 0 0 0 0 0 0 0 0 0 0 0 0 0 0 0 0 0 0 0 0 0 0 0 0 0 0 0 0 0 0 0 0 0 0 0 0 0 0 0 0 0 0 0 0 0 0
28 8 11 13 11 17 18 23 20 18 14 17 14 12 7 2 0 0 0 0 0 0 0 0 0 0 0 0 0 0 0 0 0 0 0 0 0 0 0 0 0 0 0 0 0 0 0 0 0 0 0 0 0 0 0 0 0 0 0 0 0 0 0 0 0 0 0 0 0 0 0 0 0 0 0 0 0 0 0 0 0 0 0 0 0
17 24 25 23 22 24 25 24 25 20 20 20 13 16 13 9 4 4 0 0 0 0 0 0 0 0 0 0 0 0 0 0 0 0 0 0 0 0 0 0 0 0 0 0 0 0 0 0 0 0 0 0 0 0 0 0 0 0 0 0 0 0 0 0 0 0 0 0 0 0 0 0 0 0 0 0 0 0 0 0 0 0 0 0 0
22 27 29 25 27 24 20 31 26 21 18 15 13 7 8 9 10 8 3 2 0 0 0 0 0 0 0 0 0 0 0 0 0 0 0 0 0 0 0 0 0 0 0 6 0 0 0 0 0 0 0 0 0 0 0 0 0 0 0 0 0 0 0 0 0 0 0 0 0 0 0 0 0 0 0 0 0 0 0 0 0 0 0 0 0
18 2 6 19 24 21 21 16 18 25 19 18 14 12 9 10 10 11 8 7 4 5 6 3 0 0 0 0 0 0 0 0 0 0 0 0 0 0 0 0 18 12 22 0 0 0 0 0 0 0 0 0 0 0 0 0 0 0 0 0 0 0 0 0 0 0 0 0 0 0 0 0 0 0 0 0 0 0 0 0 0 0 0 0 0
16 13 10 8 15 23 22 9 12 20 24 20 16 10 9 10 5 6 7 8 5 5 5 11 4 0 0 0 0 0 0 0 0 0 0 0 0 0 0 0 0 0 0 0 0 0 0 0 0 0 0 0 0 0 0 0 0 0 0 0 0 0 0 0 0 0 0 0 0 0 0 0 0 0 0 0 0 0 0 0 0 0 0 0 0
13 14 14 12 11 11 11 10 10 8 0 4 13 16 14 12 10 4 5 5 5 7 5 13 14 6 0 3 0 0 0 0 0 0 0 0 0 0 0 0 0 0 0 0 0 0 0 0 0 0 0 0 0 0 0 0 0 0 0 0 0 0 0 0 0 0 0 0 0 0 0 0 0 0 0 0 0 0 0 0 0 0 0 0 0
8 11 11 14 11 8 9 12 9 0 3 7 13 16 12 12 7 6 4 4 3 2 2 3 0 1 1 4 0 0 0 0 0 0 0 1 4 2 0 0 0 0 0 0 0 0 0 0 0 0 0 0 0 0 0 0 0 0 0 0 0 0 0 0 0 0 0 0 0 0 0 0 0 0 0 0 0 0 0 0 0 0 0 0 0
5 0 0 0 2 9 6 7 5 2 4 5 6 8 10 4 3 2 2 4 2 0 0 0 0 0 0 2 2 0 0 1 0 2 1 0 0 0 0 0 0 0 0 0 0 0 0 0 0 0 0 0 0 0 0 0 0 0 0 0 0 0 0 0 0 0 0 0 0 0 0 0 0 0 0 0 0 0 0 0 0 0 0 0 0
1 0 1 0 0 2 4 2 1 0 1 0 0 7 6 6 2 2 1 0 0 0 1 0 0 0 4 3 2 0 0 0 0 0 0 0 0 0 0 0 0 0 0 0 0 0 0 0 0 0 2 4 1 0 1 0 0 0 0 0 0 0 0 0 0 0 0 0 0 0 0 0 0 0 0 0 0 0 0 0 0 0 0 0 0
0 0 0 0 0 0 0 0 0 0 0 0 0 4 6 6 5 0 0 0 0 0 1 2 2 3 0 0 0 0 0 0 0 0 0 0 0 0 0 0 0 0 0 2 0 0 0 0 0 1 0 0 4 3 2 2 3 0 0 0 0 0 0 0 1 0 0 0 0 0 0 0 0 0 0 0 0 0 0 0 0 0 0 0 0
0 0 0 0 0 0 0 0 0 0 0 0 3 7 9 3 2 0 0 0 0 0 0 0 0 2 0 0 0 0 0 0 2 1 0 0 0 1 3 3 2 4 1 1 2 2 4 4 2 2 0 0 0 1 1 3 2 0 0 0 0 2 2 3 1 3 2 0 0 0 0 0 0 0 0 0 0 0 0 0 0 0 0 0 0
0 0 0 0 0 0 0 0 0 0 0 2 4 6 3 3 0 0 0 1 0 0 0 0 0 0 2 0 0 0 0 0 0 3 2 2 2 2 3 3 2 2 3 4 2 5 3 3 2 2 0 0 2 2 2 2 2 2 3 4 4 6 7 6 5 4 2 1 0 2 4 1 0 0 0 0 0 0 0 0 0 0 0 0 0
0 0 0 0 0 0 0 0 0 1 2 3 3 3 2 1 0 0 1 0 0 0 0 0 0 0 0 0 0 0 0 0 0 0 2 2 2 3 1 3 6 8 4 8 7 6 5 5 4 4 5 4 6 7 6 5 4 6 6 6 5 7 8 8 7 5 3 3 3 5 3 1 1 0 0 0 0 0 0 0 0 0 0 0 0
0 0 0 0 0 0 0 0 0 0 0 2 3 2 0 0 0 0 0 0 0 0 0 0 0 0 0 0 0 0 0 0 0 0 0 1 2 4 6 8 12 12 11 9 8 5 7 6 6 6 6 6 8 7 6 6 7 7 7 6 10 8 9 9 6 1 2 5 4 5 3 3 0 0 0 0 0 0 0 0 0 0 0 0 0
0 0 0 0 0 0 0 0 0 0 0 0 0 0 0 0 0 0 0 0 0 0 0 0 0 0 0 0 0 0 0 0 0 2 3 6 6 7 8 10 12 12 8 7 6 6 4 8 6 6 6 6 6 7 7 8 8 8 10 10 7 11 2 0 0 0 0 3 4 5 2 4 0 0 2 0 0 0 0 0 0 0 0 0 0
0 0 0 0 0 0 0 0 0 0 0 0 0 0 0 0 0 0 0 0 0 0 0 0 0 0 0 0 0 0 0 0 3 2 4 5 8 7 9 8 6 6 8 8 8 7 7 4 4 5 6 8 9 9 9 7 8 6 6 9 5 0 0 0 0 0 0 2 2 3 1 1 0 0 0 0 0 0 0 0 0 0 0 0 0
0 0 0 0 0 0 0 0 0 0 0 0 0 0 0 0 0 0 0 0 0 0 0 0 0 0 0 0 0 1 1 1 1 1 2 6 7 7 8 7 8 7 8 7 5 2 0 4 5 0 3 7 9 9 10 8 9 9 5 11 1 0 0 0 0 0 0 0 0 1 2 1 0 0 0 0 0 0 0 0 0 0 0 0 0
0 0 0 0 0 0 0 0 0 0 0 0 0 0 0 0 0 0 0 0 0 0 0 0 0 0 0 2 0 0 0 2 2 3 3 6 8 9 9 9 9 8 7 0 2 3 0 6 7 4 0 8 8 9 9 9 8 10 11 4 0 0 0 0 0 0 0 0 6 6 5 2 0 0 0 0 0 0 0 0 0 0 0 3 8
0 0 0 0 0 0 0 0 0 0 0 0 0 0 0 0 0 0 0 0 0 0 0 0 0 0 0 0 0 2 0 3 1 3 0 2 2 6 8 8 8 7 2 2 1 3 4 4 4 6 7 8 6 9 8 8 8 1 8 0 0 0 0 0 0 0 0 3 1 2 2 1 0 0 0 0 0 0 0 1 2 3 4 4 8
0 0 0 0 0 0 0 0 0 0 0 0 0 0 0 0 0 0 0 0 0 0 0 0 0 0 0 0 2 2 0 4 4 2 6 1 3 0 0 0 0 0 1 0 3 0 3 4 0 4 4 0 0 1 0 0 0 6 0 0 0 0 0 0 2 0 1 1 1 1 0 1 1 1 1 1 1 1 2 1 4 7 9 9 12
Wind_Speed
9 10 11 11 11 11 10 9 7 9 9 9 9 10 11 9 8 8 8 7 6 6 5 6 6 6 6 6 6 7 8 8 7 8 7 7 6 6 7 8 7 6 7 7 7 7 7 7 7 8 8 8 8 8 7 7 7 7 7 7 7 7 8 8 6 8 11 10 7 7 8 7 7 9 6 7 6 6 4 5 4 4 5 5 4
11 12 11 12 11 12 11 11 10 10 9 10 9 10 11 10 10 10 9 8 7 7 6 6 6 7 6 7 7 8 8 7 6 6 6 6 5 6 6 5 6 5 6 6 7 7 8 7 7 7 9 8 9 8 8 8 8 8 8 8 8 8 9 9 8 9 10 11 10 8 6 8 7 9 7 6 6 5 4 4 6 4 5 4 4
14 14 13 12 11 12 12 13 13 11 10 11 10 10 10 10 11 10 10 10 9 8 8 7 8 7 7 8 8 8 8 6 6 6 6 6 6 5 6 6 6 5 6 6 6 7 7 7 7 8 10 10 10 9 10 10 10 10 9 9 9 8 8 10 10 9 9 11 10 7 8 8 7 7 7 7 7 7 6 6 5 5 4 4 4
18 17 16 14 12 12 13 14 13 13 12 13 12 11 11 11 11 11 11 12 11 11 10 10 10 9 8 8 8 8 8 7 6 6 6 6 6 6 6 6 6 5 5 5 7 7 7 6 6 7 9 10 9 9 10 10 11 11 10 10 10 9 9 10 10 10 10 9 11 9 8 8 8 7 7 8 7 7 6 6 6 6 5 4 3
22 21 19 18 15 14 13 13 14 14 14 15 14 13 12 13 14 12 12 12 12 13 13 12 12 11 10 10 9 9 9 8 7 6 7 8 7 7 7 7 7 6 6 6 7 7 7 6 7 8 9 8 8 9 10 11 11 10 10 11 10 10 10 10 10 10 9 9 10 10 8 7 7 7 6 5 5 6 5 6 5 5 6 4 3
22 23 23 21 19 16 15 15 15 15 16 16 16 15 15 14 14 14 13 13 13 13 14 13 14 13 12 12 11 11 11 10 9 8 9 9 9 8 8 8 8 8 8 8 8 9 9 9 9 10 10 9 9 10 10 10 10 10 10 10 9 9 9 9 9 9 8 8 8 8 9 7 6 6 4 3 2 2 3 4 4 6 7 6 7
22 22 23 23 23 21 19 18 18 18 18 18 18 17 16 16 15 14 15 14 14 14 14 14 15 14 14 13 13 13 12 11 11 11 10 10 10 10 9 9 10 10 10 10 10 10 11 11 12 11 11 11 11 11 12 12 12 11 11 10 9 9 8 8 9 8 8 7 7 8 7 8 6 4 4 4 2 3 2 4 4 6 7 7 6
21 21 21 21 23 24 23 22 21 21 21 21 19 19 19 18 18 17 16 15 15 14 14 15 16 15 15 14 14 14 13 13 13 12 11 11 11 11 10 10 10 11 11 11 11 12 12 12 12 13 13 14 13 14 13 13 14 13 13 13 12 11 10 11 10 10 9 9 9 9 9 8 8 7 6 5 5 5 5 5 5 7 7 8 7
22 22 21 20 21 23 25 26 25 24 22 23 22 21 19 19 19 19 19 18 18 17 17 17 17 17 17 16 15 15 14 14 14 13 12 13 13 12 12 11 11 11 11 11 12 12 12 12 13 13 17 18 17 15 15 16 15 14 14 13 13 13 13 12 12 12 11 10 10 11 10 11 10 9 9 8 6 6 7 7 7 8 9 9 9
23 23 22 21 22 23 25 28 29 27 26 25 24 23 21 20 20 20 20 20 20 21 21 21 20 20 20 19 18 16 16 15 18 23 22 18 16 15 15 14 13 13 13 12 12 12 12 12 14 19 21 17 16 16 15 14 14 13 14 15 14 14 14 13 12 12 12 12 11 11 12 12 12 12 11 9 7 8 9 10 9 11 10 10 11
24 25 26 25 25 26 26 27 28 28 27 27 27 27 26 24 23 23 23 23 22 24 23 22 21 21 20 20 18 18 18 28 32 27 21 18 16 16 15 15 15 15 14 14 13 13 13 14 14 18 20 18 16 16 16 16 15 15 13 11 11 12 13 13 13 13 13 12 12 12 12 12 13 13 12 9 9 10 10 9 9 10 10 10 10
26 27 30 29 29 30 28 27 25 25 25 27 29 31 31 30 29 28 26 25 25 24 24 23 23 22 23 21 21 19 28 34 32 31 25 20 17 17 16 16 16 17 16 16 16 15 15 15 15 16 16 18 17 19 18 18 17 17 16 14 13 12 12 12 13 13 12 11 11 12 12 11 11 12 11 9 9 8 8 7 6 6 6 7 7
27 28 30 31 31 31 30 28 27 27 27 27 29 33 34 34 32 30 30 30 29 26 26 26 25 24 23 25 23 27 31 37 33 31 29 26 21 18 18 17 18 18 18 18 18 19 19 18 17 18 18 27 18 14 15 17 20 19 17 16 15 14 14 15 13 11 11 10 9 9 10 10 9 10 11 9 8 5 5 4 4 4 4 3 4
30 30 31 34 35 35 35 34 34 36 37 34 33 35 39 39 39 38 35 33 31 29 27 28 27 26 26 26 29 32 33 35 32 30 29 27 25 20 19 18 19 19 20 20 19 20 20 20 20 20 19 19 19 16 16 14 15 15 15 15 14 17 18 17 16 16 13 11 10 9 10 10 8 9 9 9 8 6 5 3 3 2 2 1 2
31 32 33 32 33 35 35 34 33 35 38 38 40 43 45 43 41 38 36 35 31 29 28 30 30 29 30 30 28 33 35 38 34 33 31 27 27 22 20 20 20 21 22 22 23 22 22 20 21 20 22 20 24 24 19 17 15 14 14 12 12 11 11 12 14 16 17 14 13 12 12 13 11 10 12 12 11 10 8 5 4 3 1 2 4
33 35 36 39 38 36 36 37 36 34 35 38 41 42 43 43 41 37 39 40 37 36 34 33 34 33 33 31 32 34 38 39 36 35 32 30 27 22 22 22 22 22 24 25 25 25 24 23 23 23 22 26 32 30 26 19 16 14 14 14 13 13 13 13 15 13 10 9 9 9 10 14 17 13 13 13 12 10 9 8 9 8 5 4 5
38 38 41 42 43 42 42 41 40 38 38 38 39 39 41 44 44 42 42 43 44 44 39 36 37 38 39 37 35 36 39 40 38 38 35 32 25 23 23 24 24 23 24 27 26 26 27 29 27 24 28 34 32 33 30 23 19 18 17 16 15 15 15 15 24 23 20 18 12 9 8 8 7 8 10 11 16 14 12 11 12 11 8 6 8
37 38 40 42 43 42 41 42 42 41 39 39 39 39 40 39 38 39 45 50 52 50 46 44 42 40 41 39 37 40 42 43 43 41 39 37 31 25 26 25 26 26 26 26 28 30 37 41 35 34 34 32 34 33 30 25 21 19 17 16 16 15 16 16 18 23 24 21 19 15 13 11 11 11 12 13 15 20 18 15 12 12 9 10 10
40 39 40 41 40 37 35 34 36 37 36 36 36 34 33 36 39 39 43 49 54 51 47 46 47 43 43 43 43 43 44 45 45 44 43 42 36 31 31 30 26 29 29 30 33 31 35 41 44 39 35 34 34 32 30 28 24 22 20 18 16 16 19 23 22 20 20 20 21 20 18 18 18 18 18 20 19 23 21 16 14 15 12 12 14
42 42 42 42 42 42 37 35 35 36 37 36 33 30 28 30 32 32 31 35 45 49 48 45 47 44 44 43 43 44 45 45 46 46 46 45 42 36 36 33 34 34 34 33 31 32 35 36 39 42 39 36 33 31 29 28 28 25 24 21 19 20 24 22 21 22 21 20 19 20 18 18 18 17 18 19 23 26 25 20 19 19 17 17 19
41 40 41 41 40 42 42 40 38 37 35 34 33 31 nan 26 26 25 22 21 28 36 41 43 46 47 46 44 43 43 42 42 44 47 46 46 45 39 39 39 36 35 35 34 32 35 34 34 37 42 41 38 34 31 29 27 27 27 26 26 28 25 21 22 23 22 20 20 21 22 22 21 22 23 23 24 25 23 21 23 22 20 19 19 22
42 43 43 nan 38 40 nan nan 39 37 36 35 nan nan nan nan nan nan 25 22 24 28 30 33 38 42 43 43 43 42 44 46 42 46 47 46 46 44 40 40 37 33 37 37 37 38 37 33 38 39 39 38 36 33 29 28 27 28 33 31 25 25 26 24 22 23 23 23 24 25 25 23 26 27 24 25 27 29 24 22 25 23 24 21 26
43 45 44 nan nan nan nan nan nan 36 36 nan nan nan nan nan nan nan 29 29 29 29 27 26 29 31 33 36 37 38 39 40 42 41 44 45 45 46 45 41 38 39 40 41 41 41 42 40 41 39 37 40 40 38 37 35 32 37 31 27 25 25 26 27 28 27 28 28 28 27 27 27 30 29 27 27 27 28 26 26 25 24 22 21 23
41 43 43 42 nan nan 39 nan nan nan nan nan nan nan nan nan nan nan nan nan 29 28 nan 26 26 25 26 27 nan nan nan nan nan nan nan nan nan nan nan nan nan nan nan nan nan nan nan nan nan nan nan nan nan nan nan nan nan nan nan nan nan 30 32 35 38 37 37 36 35 35 35 36 34 33 31 30 28 28 27 25 25 26 25 23 23
39 40 nan nan nan 39 nan 37 36 nan nan nan nan nan nan nan nan nan nan nan nan nan nan nan nan nan nan nan nan nan nan nan nan nan nan nan nan nan nan nan nan nan nan nan nan nan nan nan nan nan nan nan nan nan nan nan nan nan nan nan 33 38 nan nan nan 39 39 39 39 39 39 38 36 34 33 31 31 30 30 29 28 27 25 23 22
39 39 39 39 39 nan nan nan nan nan nan nan nan nan 35 nan nan nan nan nan nan nan nan nan nan nan nan nan nan nan nan nan nan nan nan nan nan nan nan nan nan nan nan nan nan nan nan nan nan nan nan nan nan nan nan nan nan nan nan nan nan nan nan nan nan nan nan nan nan nan nan nan nan nan 34 35 36 35 35 33 31 29 29 26 24
nan 38 39 39 nan nan nan nan nan nan nan nan nan nan nan nan nan nan nan nan nan nan nan nan nan nan nan nan nan nan nan nan nan nan nan nan nan nan nan nan nan nan nan nan nan nan nan nan nan nan nan nan nan nan nan nan nan nan nan nan nan nan nan nan nan nan nan nan nan nan nan nan nan nan nan nan nan nan nan nan nan 32 32 31 28
37 38 nan nan nan nan nan nan nan nan nan nan nan nan nan nan nan nan nan nan nan nan nan nan nan nan nan nan nan nan nan nan nan nan nan nan nan nan nan nan nan nan nan nan nan nan nan nan nan nan nan nan nan nan nan nan nan nan nan nan nan nan nan nan nan nan nan nan nan nan nan nan nan nan nan nan nan nan nan nan nan nan nan nan nan
nan 39 nan nan nan nan nan nan nan nan nan nan nan nan nan nan nan nan nan nan nan nan nan nan nan nan nan nan nan nan nan nan nan nan nan nan nan nan nan nan nan nan nan nan nan nan nan nan nan nan nan nan nan nan nan nan nan nan nan nan nan nan nan nan nan nan nan nan nan nan nan nan nan nan nan nan nan nan nan nan nan nan nan nan nan
nan nan nan nan nan nan nan nan nan nan nan nan nan nan nan nan nan nan nan nan nan nan nan nan nan nan nan nan nan nan nan nan nan nan nan nan nan nan nan nan nan nan nan nan nan nan nan nan nan nan nan nan nan nan nan nan nan nan nan nan nan nan nan nan nan nan nan nan nan nan nan nan nan nan nan nan nan nan nan nan nan nan nan nan nan
nan nan nan nan nan nan nan nan nan nan nan nan nan nan nan nan nan nan nan nan nan nan nan nan nan nan nan nan nan nan nan nan nan nan nan nan nan nan nan nan nan nan nan nan nan nan nan nan nan nan nan nan nan nan nan nan nan nan nan nan nan nan nan nan nan nan nan nan nan nan nan nan nan nan nan nan nan nan nan nan nan nan nan nan nan
nan nan nan nan nan nan nan nan nan nan nan nan nan nan nan nan nan nan nan nan nan nan nan nan nan nan nan nan nan nan nan nan nan nan nan nan nan nan nan nan nan nan nan nan nan nan nan nan nan nan nan nan nan nan nan nan nan nan nan nan nan nan nan nan nan nan nan nan nan nan nan nan nan nan nan nan nan nan nan nan nan nan nan nan nan
nan nan nan nan nan nan nan nan nan nan nan nan nan nan nan nan nan nan nan nan nan nan nan nan nan nan nan nan nan nan nan nan nan nan nan nan nan nan nan nan nan nan nan nan nan nan nan nan nan nan nan nan nan nan nan nan nan nan nan nan nan nan nan nan nan nan nan nan nan nan nan nan nan nan nan nan nan nan nan nan nan nan nan nan nan
nan nan nan nan nan nan nan nan nan nan nan nan nan nan nan nan nan nan nan nan nan nan nan nan nan nan nan nan nan nan nan nan nan nan nan nan nan nan nan nan nan nan nan nan nan nan nan nan nan nan nan nan nan nan nan nan nan nan nan nan nan nan nan nan nan nan nan nan nan nan nan nan nan nan nan nan nan nan nan nan nan nan nan nan nan
nan nan nan nan nan nan nan nan nan nan nan nan nan nan nan nan nan nan nan nan nan nan nan nan nan nan nan nan nan nan nan nan nan nan nan nan nan nan nan nan nan nan nan nan nan nan nan nan nan nan nan nan nan nan nan nan nan nan nan nan nan nan nan nan nan nan nan nan nan nan nan nan nan nan nan nan nan nan nan nan nan nan nan nan nan
nan nan nan nan nan nan nan nan nan nan nan nan nan nan nan nan nan nan nan nan nan nan nan nan nan nan nan nan nan nan nan nan nan nan nan nan nan nan nan nan nan nan nan nan nan nan nan nan nan nan nan nan nan nan nan nan nan nan nan nan nan nan nan nan nan nan nan nan nan nan nan nan nan nan nan nan nan nan nan nan nan nan nan nan nan
nan nan nan nan nan nan nan nan nan nan nan nan nan nan nan nan nan nan nan nan nan nan nan nan nan nan nan nan nan nan nan nan nan nan nan nan nan nan nan nan nan nan nan nan nan nan nan nan nan nan nan nan nan nan nan nan nan nan nan nan nan nan nan nan nan nan nan nan nan nan nan nan nan nan nan nan nan nan nan nan nan nan nan nan nan
nan nan nan nan nan nan nan nan nan nan nan nan nan nan nan nan nan nan nan nan nan nan nan nan nan nan nan nan nan nan nan nan nan nan nan nan nan nan nan nan nan nan nan nan nan nan nan nan nan nan nan nan nan nan nan nan nan nan nan nan nan nan nan nan nan nan nan nan nan nan nan nan nan nan nan nan nan nan nan nan nan nan nan nan nan
nan nan nan nan nan nan nan nan nan nan nan nan nan nan nan nan nan nan nan nan nan nan nan nan nan nan nan nan nan nan nan nan nan nan nan nan nan nan nan nan nan nan nan nan nan nan nan nan nan nan nan nan nan nan nan nan nan nan nan nan nan nan nan nan nan nan nan nan nan nan nan nan nan nan nan nan nan nan nan nan nan nan nan nan nan
nan nan nan nan nan nan nan nan nan nan nan nan nan nan nan nan nan nan nan nan nan nan nan nan nan nan nan nan nan nan nan nan nan nan nan nan nan nan nan nan nan nan nan nan nan nan nan nan nan nan nan nan nan nan nan nan nan nan nan nan nan nan nan nan nan nan nan nan nan nan nan nan nan nan nan nan nan nan nan nan nan nan nan nan nan
nan nan nan nan nan nan nan nan nan nan nan nan nan nan nan nan nan nan nan nan nan nan nan nan nan nan nan nan nan nan nan nan nan nan nan nan nan nan nan nan nan nan nan nan nan nan nan nan nan nan nan nan nan nan nan nan nan nan nan nan nan nan nan nan nan nan nan nan nan nan nan nan nan nan nan nan nan nan nan nan nan nan nan nan nan
nan nan nan nan nan nan nan nan nan nan nan nan nan nan nan nan nan nan nan nan nan nan nan nan nan nan nan nan nan nan nan nan nan nan nan nan nan nan nan nan nan nan nan nan nan nan nan nan nan nan nan nan nan nan nan nan nan nan nan nan nan nan nan nan nan nan nan nan nan nan nan nan nan nan nan nan nan nan nan nan nan nan nan nan nan
nan nan nan nan nan nan nan nan nan nan nan nan nan nan nan nan nan nan nan nan nan nan nan nan nan nan nan nan nan nan nan nan nan nan nan nan nan nan nan nan nan nan nan nan nan nan nan nan nan nan nan nan nan nan nan nan nan nan nan nan nan nan nan nan nan nan nan nan nan nan nan nan nan nan nan nan nan nan nan nan nan nan nan nan nan
nan nan nan nan nan nan nan nan nan nan nan nan nan nan nan nan nan nan nan nan nan nan nan nan nan nan nan nan nan nan nan nan nan nan nan nan nan nan nan nan nan nan nan nan nan nan nan nan nan nan nan nan nan nan nan nan nan nan nan nan nan nan nan nan nan nan nan nan nan nan nan nan nan nan nan nan nan nan nan nan nan nan nan nan nan
nan nan nan nan nan nan nan nan nan nan nan nan nan nan nan nan nan nan nan nan nan nan nan nan nan nan nan nan nan nan nan nan nan nan nan nan nan nan nan nan nan nan nan nan nan nan nan nan nan nan nan nan nan nan nan nan nan nan nan nan nan nan nan nan nan nan nan nan nan nan nan nan nan nan nan nan nan nan nan nan nan nan nan nan nan
nan nan nan nan nan nan nan nan nan nan nan nan nan nan nan nan nan nan nan nan nan nan nan nan nan nan nan nan nan nan nan nan nan nan nan nan nan nan nan nan nan nan nan nan nan nan nan nan nan nan nan nan nan nan nan nan nan nan nan nan nan nan nan nan nan nan nan nan nan nan nan nan nan nan nan nan nan nan nan nan nan nan nan nan nan
nan nan nan nan nan nan nan nan nan nan nan nan nan nan nan nan nan nan nan nan nan nan nan nan nan nan nan nan nan nan nan nan nan nan nan nan nan nan nan nan nan nan nan nan nan nan nan nan nan nan nan nan nan nan nan nan nan nan nan nan nan nan nan nan nan nan nan nan nan nan nan nan nan nan nan nan nan nan nan nan nan nan nan nan nan
nan nan nan nan nan nan nan nan nan nan nan nan nan nan nan nan nan nan nan nan nan nan nan nan nan nan nan nan nan nan nan nan nan nan nan nan nan nan nan nan nan nan nan nan nan nan nan nan nan nan nan nan nan nan nan nan nan nan nan nan nan nan nan nan nan nan nan nan nan nan nan nan nan nan nan nan nan nan nan nan nan nan nan nan nan
nan nan nan nan nan nan nan nan nan nan nan nan nan nan nan nan nan nan nan nan nan nan nan nan nan nan nan nan nan nan nan nan nan nan nan nan nan nan nan nan nan nan nan nan nan nan nan nan nan nan nan nan nan nan nan nan nan nan nan nan nan nan nan nan nan nan nan nan nan nan nan nan nan nan nan nan nan nan nan nan nan nan nan nan nan
nan nan nan nan nan nan nan nan nan nan nan nan nan nan nan nan nan nan nan nan nan nan nan nan nan nan nan nan nan nan nan nan nan nan nan nan nan nan nan nan nan nan nan nan nan nan nan nan nan nan nan nan nan nan nan nan nan nan nan nan nan nan nan nan nan nan nan nan nan nan nan nan nan nan nan nan nan nan nan nan nan nan nan nan nan
nan nan nan nan nan nan nan nan nan nan nan nan nan nan nan nan nan nan nan nan nan nan nan nan nan nan nan nan nan nan nan nan nan nan nan nan nan nan nan nan nan nan nan nan nan nan nan nan nan nan nan nan nan nan nan nan nan nan nan nan nan nan nan nan nan nan nan nan nan nan nan nan nan nan nan nan nan nan nan nan nan nan nan nan nan
Wind_Direction
245 236 228 231 232 236 234 228 220 221 220 223 207 213 215 208 209 201 217 202 216 231 230 228 232 228 224 234 241 248 248 251 255 262 268 272 268 259 256 272 271 268 273 270 270 268 266 259 255 255 254 258 260 258 257 271 287 289 289 290 286 280 281 275 273 272 280 277 275 276 266 264 275 279 295 292 302 297 304 340 344 4 4 344 318
248 245 235 231 232 233 231 231 227 224 226 230 219 219 216 219 216 211 213 215 213 226 236 237 236 233 227 233 230 240 249 245 247 259 265 272 272 278 288 286 284 278 269 277 278 273 275 274 270 268 275 271 264 266 271 264 268 273 277 281 278 281 283 281 279 278 278 281 280 276 287 288 287 281 282 297 298 313 330 341 1 5 347 332 327
248 247 245 241 239 236 232 232 230 230 230 231 230 228 229 220 222 219 213 223 223 213 232 226 237 235 225 236 238 237 243 243 244 247 255 263 263 252 259 276 282 283 291 291 288 286 290 287 290 288 286 287 285 280 270 265 265 261 262 264 265 271 279 281 281 281 278 282 283 286 281 278 283 285 298 310 314 334 342 351 342 334 333 334 331
249 249 248 248 247 243 239 231 233 235 235 232 231 227 229 230 228 221 219 217 229 224 221 225 239 235 232 238 241 237 246 244 244 257 258 256 258 263 259 260 264 274 277 277 283 287 291 290 285 283 279 285 289 284 281 281 276 277 277 280 284 281 278 286 292 286 281 281 285 285 282 280 288 295 301 306 318 310 325 323 336 335 316 320 320
252 252 251 251 246 245 246 244 239 236 237 237 239 234 228 225 231 226 226 222 226 232 231 226 234 238 233 240 240 239 244 246 244 245 255 258 261 262 267 274 275 274 271 270 269 272 274 276 279 280 286 289 294 298 294 292 287 283 283 282 283 283 282 281 283 288 287 288 287 293 295 306 305 304 295 291 301 317 317 318 307 310 304 292 288
252 253 253 252 250 246 245 246 247 247 242 240 242 240 237 231 224 230 226 228 231 231 237 234 235 237 231 235 237 237 236 236 240 236 245 257 261 258 266 268 272 273 272 277 276 275 274 275 272 271 273 275 273 272 274 279 282 286 281 279 276 277 282 288 291 293 293 291 293 297 313 313 305 304 306 308 303 280 294 296 297 284 284 275 259
252 253 254 256 254 251 246 242 242 246 248 243 241 243 242 242 237 230 232 230 234 234 240 241 239 238 238 234 235 239 237 236 236 238 237 242 251 256 257 266 267 267 272 269 270 274 274 274 274 274 274 272 269 268 271 274 274 273 277 276 277 279 280 282 284 287 290 291 297 305 308 310 308 312 310 318 330 335 307 279 285 278 269 266 261
255 255 254 256 259 259 254 247 242 241 243 245 241 239 240 242 242 238 234 238 235 236 236 244 245 242 240 238 237 237 242 239 243 241 241 242 250 257 254 254 260 266 267 268 267 268 272 275 277 277 277 275 273 271 271 269 267 268 268 265 262 262 259 259 261 264 272 277 282 280 282 289 300 306 305 308 309 305 291 265 266 270 272 274 268
257 258 258 256 258 259 258 254 248 244 243 245 244 240 239 239 240 239 239 235 236 236 237 235 239 243 243 241 237 237 242 247 246 252 252 251 244 249 254 255 258 260 261 265 271 271 273 274 276 280 277 274 269 263 255 253 257 260 261 263 263 260 259 258 259 262 266 270 269 274 281 281 282 289 288 283 283 271 275 277 275 273 268 266 272
254 258 259 254 252 253 256 255 253 249 246 246 248 248 245 243 243 245 243 241 236 233 232 235 235 241 243 244 242 239 240 244 252 242 229 237 250 251 257 259 256 256 260 263 268 276 280 277 277 272 272 282 288 291 291 286 282 269 261 262 261 262 264 265 268 269 267 264 268 266 268 272 276 276 276 278 282 283 269 265 264 262 262 264 273
252 254 256 256 253 253 253 255 256 254 251 249 249 248 245 242 242 243 243 241 239 241 239 238 238 239 244 247 250 248 244 237 229 247 252 243 241 254 259 266 271 273 275 275 272 271 273 277 276 290 296 297 299 303 299 300 300 300 297 286 273 268 267 270 274 271 269 269 271 275 274 273 275 275 279 281 278 268 272 273 268 265 267 265 265
251 251 253 256 257 256 253 256 258 259 256 253 251 249 246 244 241 240 239 243 245 243 244 242 240 238 243 245 246 248 248 236 234 232 230 241 245 246 257 264 270 273 274 272 270 268 267 268 272 273 281 278 269 291 304 311 311 310 311 310 310 311 306 292 282 280 281 278 277 275 271 275 275 279 278 273 271 273 277 281 280 275 263 266 270
252 253 255 255 256 255 255 254 254 254 254 252 249 248 248 246 243 242 242 239 240 244 245 246 247 245 242 244 243 245 245 236 232 233 234 236 243 243 248 254 258 263 265 268 267 264 262 260 260 261 262 275 279 280 280 291 309 316 316 318 319 322 324 328 326 312 296 300 295 287 285 276 274 278 276 275 277 291 293 297 289 275 271 270 278
257 257 258 259 258 258 257 257 253 251 249 250 251 248 247 243 242 241 239 242 241 243 248 250 248 246 245 245 247 245 243 233 230 233 236 237 242 252 250 252 257 256 257 259 260 265 267 264 265 267 263 263 267 269 271 276 275 288 298 303 303 317 329 333 335 342 337 316 308 303 297 296 291 281 278 283 291 290 291 292 269 269 286 327 276
254 254 256 258 260 260 261 261 261 260 258 259 259 257 256 251 248 248 251 250 249 248 245 248 247 247 248 250 250 247 244 232 231 231 233 235 240 246 249 250 256 262 265 263 260 256 258 262 263 264 266 268 260 256 259 256 261 268 274 275 281 279 286 302 312 311 311 316 315 315 306 304 303 299 292 288 283 280 284 281 273 275 323 5 314
256 251 251 251 251 252 255 256 258 259 259 257 261 262 259 254 251 245 243 239 240 246 244 243 247 245 246 249 248 246 244 234 233 234 233 234 237 251 254 253 254 257 261 261 260 261 261 260 260 259 264 263 251 244 248 251 256 263 267 274 276 280 285 293 290 275 271 274 281 281 276 261 260 270 277 280 282 292 297 307 308 305 310 308 298
248 248 248 246 246 249 253 256 258 260 259 258 257 256 256 253 251 249 251 248 246 244 243 242 242 244 246 246 247 244 243 234 233 235 234 234 240 252 254 254 256 257 260 261 262 263 261 258 256 257 259 259 250 246 240 239 261 260 262 262 266 270 274 274 303 314 312 306 294 272 262 272 284 286 295 305 305 295 288 293 301 299 297 293 289
251 249 250 251 250 253 255 254 255 256 253 253 255 253 251 251 252 251 254 251 247 246 244 242 240 244 246 247 246 245 242 236 232 233 233 232 235 245 252 255 256 256 257 261 260 259 258 254 254 258 259 259 252 250 247 246 258 260 259 260 261 269 271 271 270 283 303 303 304 307 308 302 303 309 309 308 309 300 299 299 287 280 287 286 282
252 250 251 252 251 253 258 259 256 252 250 250 252 253 255 257 252 250 251 249 247 243 241 243 243 240 242 245 245 244 242 238 232 231 232 232 234 245 250 251 252 256 254 254 255 257 264 258 256 255 257 255 253 254 252 253 257 257 257 258 260 262 265 255 261 258 263 270 277 279 281 296 296 290 292 313 317 308 304 298 279 280 282 281 275
250 252 252 251 248 248 250 253 252 248 247 245 246 247 251 252 250 250 252 250 247 243 242 244 247 244 245 243 242 240 241 239 234 231 232 233 232 242 250 252 256 254 254 253 256 259 262 266 262 256 255 253 253 252 255 259 260 257 254 258 256 255 250 252 258 259 260 263 267 268 266 266 267 267 270 275 291 302 305 298 287 282 281 280 280
248 246 246 250 252 251 251 254 256 255 254 256 255 249 nan 249 247 252 256 251 246 244 244 244 246 246 244 242 241 241 242 241 237 233 234 236 236 240 256 253 254 256 255 252 253 255 259 262 262 249 248 248 250 250 253 256 261 260 261 257 252 252 253 256 255 255 266 267 266 267 269 269 272 273 273 275 270 268 278 295 288 281 277 282 289
249 248 248 nan 255 255 nan nan 258 259 259 260 nan nan nan nan nan nan 258 257 255 255 254 249 246 245 244 242 242 243 243 241 242 239 239 241 243 241 251 254 251 252 257 255 254 256 256 258 255 249 246 248 249 251 251 255 260 264 257 256 254 255 262 263 264 267 265 264 265 267 268 271 267 263 262 265 267 268 269 269 271 275 280 281 277
250 251 253 nan nan nan nan nan nan 258 258 nan nan nan nan nan nan nan 263 262 261 260 258 257 255 250 244 241 240 240 240 239 237 241 240 241 241 244 246 249 240 249 253 254 253 255 256 256 256 250 247 247 250 254 254 249 265 258 256 260 268 270 273 275 267 264 263 264 264 265 267 269 269 274 277 273 271 274 272 272 273 275 278 278 273
252 253 254 254 nan nan 258 nan nan nan nan nan nan nan nan nan nan nan nan nan 261 260 nan 264 264 262 258 254 nan nan nan nan nan nan nan nan nan nan nan nan nan nan nan nan nan nan nan nan nan nan nan nan nan nan nan nan nan nan nan nan nan 277 269 262 263 262 262 262 262 263 263 262 262 265 263 264 266 265 266 266 268 272 276 277 277
256 258 nan nan nan 255 nan 252 252 nan nan nan nan nan nan nan nan nan nan nan nan nan nan nan nan nan nan nan nan nan nan nan nan nan nan nan nan nan nan nan nan nan nan nan nan nan nan nan nan nan nan nan nan nan nan nan nan nan nan nan 260 261 nan nan nan 263 264 264 264 264 264 264 265 265 264 264 264 265 266 267 266 267 268 271 275
258 259 261 260 260 nan nan nan nan nan nan nan nan nan 251 nan nan nan nan nan nan nan nan nan nan nan nan nan nan nan nan nan nan nan nan nan nan nan nan nan nan nan nan nan nan nan nan nan nan nan nan nan nan nan nan nan nan nan nan nan nan nan nan nan nan nan nan nan nan nan nan nan nan nan 259 260 261 261 261 261 261 264 266 267 269
nan 259 260 260 nan nan nan nan nan nan nan nan nan nan nan nan nan nan nan nan nan nan nan nan nan nan nan nan nan nan nan nan nan nan nan nan nan nan nan nan nan nan nan nan nan nan nan nan nan nan nan nan nan nan nan nan nan nan nan nan nan nan nan nan nan nan nan nan nan nan nan nan nan nan nan nan nan nan nan nan nan 263 262 263 263
256 258 nan nan nan nan nan nan nan nan nan nan nan nan nan nan nan nan nan nan nan nan nan nan nan nan nan nan nan nan nan nan nan nan nan nan nan nan nan nan nan nan nan nan nan nan nan nan nan nan nan nan nan nan nan nan nan nan nan nan nan nan nan nan nan nan nan nan nan nan nan nan nan nan nan nan nan nan nan nan nan nan nan nan nan
nan 257 nan nan nan nan nan nan nan nan nan nan nan nan nan nan nan nan nan nan nan nan nan nan nan nan nan nan nan nan nan nan nan nan nan nan nan nan nan nan nan nan nan nan nan nan nan nan nan nan nan nan nan nan nan nan nan nan nan nan nan nan nan nan nan nan nan nan nan nan nan nan nan nan nan nan nan nan nan nan nan nan nan nan nan
nan nan nan nan nan nan nan nan nan nan nan nan nan nan nan nan nan nan nan nan nan nan nan nan nan nan nan nan nan nan nan nan nan nan nan nan nan nan nan nan nan nan nan nan nan nan nan nan nan nan nan nan nan nan nan nan nan nan nan nan nan nan nan nan nan nan nan nan nan nan nan nan nan nan nan nan nan nan nan nan nan nan nan nan nan
nan nan nan nan nan nan nan nan nan nan nan nan nan nan nan nan nan nan nan nan nan nan nan nan nan nan nan nan nan nan nan nan nan nan nan nan nan nan nan nan nan nan nan nan nan nan nan nan nan nan nan nan nan nan nan nan nan nan nan nan nan nan nan nan nan nan nan nan nan nan nan nan nan nan nan nan nan nan nan nan nan nan nan nan nan
nan nan nan nan nan nan nan nan nan nan nan nan nan nan nan nan nan nan nan nan nan nan nan nan nan nan nan nan nan nan nan nan nan nan nan nan nan nan nan nan nan nan nan nan nan nan nan nan nan nan nan nan nan nan nan nan nan nan nan nan nan nan nan nan nan nan nan nan nan nan nan nan nan nan nan nan nan nan nan nan nan nan nan nan nan
nan nan nan nan nan nan nan nan nan nan nan nan nan nan nan nan nan nan nan nan nan nan nan nan nan nan nan nan nan nan nan nan nan nan nan nan nan nan nan nan nan nan nan nan nan nan nan nan nan nan nan nan nan nan nan nan nan nan nan nan nan nan nan nan nan nan nan nan nan nan nan nan nan nan nan nan nan nan nan nan nan nan nan nan nan
nan nan nan nan nan nan nan nan nan nan nan nan nan nan nan nan nan nan nan nan nan nan nan nan nan nan nan nan nan nan nan nan nan nan nan nan nan nan nan nan nan nan nan nan nan nan nan nan nan nan nan nan nan nan nan nan nan nan nan nan nan nan nan nan nan nan nan nan nan nan nan nan nan nan nan nan nan nan nan nan nan nan nan nan nan
nan nan nan nan nan nan nan nan nan nan nan nan nan nan nan nan nan nan nan nan nan nan nan nan nan nan nan nan nan nan nan nan nan nan nan nan nan nan nan nan nan nan nan nan nan nan nan nan nan nan nan nan nan nan nan nan nan nan nan nan nan nan nan nan nan nan nan nan nan nan nan nan nan nan nan nan nan nan nan nan nan nan nan nan nan
nan nan nan nan nan nan nan nan nan nan nan nan nan nan nan nan nan nan nan nan nan nan nan nan nan nan nan nan nan nan nan nan nan nan nan nan nan nan nan nan nan nan nan nan nan nan nan nan nan nan nan nan nan nan nan nan nan nan nan nan nan nan nan nan nan nan nan nan nan nan nan nan nan nan nan nan nan nan nan nan nan nan nan nan nan
nan nan nan nan nan nan nan nan nan nan nan nan nan nan nan nan nan nan nan nan nan nan nan nan nan nan nan nan nan nan nan nan nan nan nan nan nan nan nan nan nan nan nan nan nan nan nan nan nan nan nan nan nan nan nan nan nan nan nan nan nan nan nan nan nan nan nan nan nan nan nan nan nan nan nan nan nan nan nan nan nan nan nan nan nan
nan nan nan nan nan nan nan nan nan nan nan nan nan nan nan nan nan nan nan nan nan nan nan nan nan nan nan nan nan nan nan nan nan nan nan nan nan nan nan nan nan nan nan nan nan nan nan nan nan nan nan nan nan nan nan nan nan nan nan nan nan nan nan nan nan nan nan nan nan nan nan nan nan nan nan nan nan nan nan nan nan nan nan nan nan
nan nan nan nan nan nan nan nan nan nan nan nan nan nan nan nan nan nan nan nan nan nan nan nan nan nan nan nan nan nan nan nan nan nan nan nan nan nan nan nan nan nan nan nan nan nan nan nan nan nan nan nan nan nan nan nan nan nan nan nan nan nan nan nan nan nan nan nan nan nan nan nan nan nan nan nan nan nan nan nan nan nan nan nan nan
nan nan nan nan nan nan nan nan nan nan nan nan nan nan nan nan nan nan nan nan nan nan nan nan nan nan nan nan nan nan nan nan nan nan nan nan nan nan nan nan nan nan nan nan nan nan nan nan nan nan nan nan nan nan nan nan nan nan nan nan nan nan nan nan nan nan nan nan nan nan nan nan nan nan nan nan nan nan nan nan nan nan nan nan nan
nan nan nan nan nan nan nan nan nan nan nan nan nan nan nan nan nan nan nan nan nan nan nan nan nan nan nan nan nan nan nan nan nan nan nan nan nan nan nan nan nan nan nan nan nan nan nan nan nan nan nan nan nan nan nan nan nan nan nan nan nan nan nan nan nan nan nan nan nan nan nan nan nan nan nan nan nan nan nan nan nan nan nan nan nan
nan nan nan nan nan nan nan nan nan nan nan nan nan nan nan nan nan nan nan nan nan nan nan nan nan nan nan nan nan nan nan nan nan nan nan nan nan nan nan nan nan nan nan nan nan nan nan nan nan nan nan nan nan nan nan nan nan nan nan nan nan nan nan nan nan nan nan nan nan nan nan nan nan nan nan nan nan nan nan nan nan nan nan nan nan
nan nan nan nan nan nan nan nan nan nan nan nan nan nan nan nan nan nan nan nan nan nan nan nan nan nan nan nan nan nan nan nan nan nan nan nan nan nan nan nan nan nan nan nan nan nan nan nan nan nan nan nan nan nan nan nan nan nan nan nan nan nan nan nan nan nan nan nan nan nan nan nan nan nan nan nan nan nan nan nan nan nan nan nan nan
nan nan nan nan nan nan nan nan nan nan nan nan nan nan nan nan nan nan nan nan nan nan nan nan nan nan nan nan nan nan nan nan nan nan nan nan nan nan nan nan nan nan nan nan nan nan nan nan nan nan nan nan nan nan nan nan nan nan nan nan nan nan nan nan nan nan nan nan nan nan nan nan nan nan nan nan nan nan nan nan nan nan nan nan nan
nan nan nan nan nan nan nan nan nan nan nan nan nan nan nan nan nan nan nan nan nan nan nan nan nan nan nan nan nan nan nan nan nan nan nan nan nan nan nan nan nan nan nan nan nan nan nan nan nan nan nan nan nan nan nan nan nan nan nan nan nan nan nan nan nan nan nan nan nan nan nan nan nan nan nan nan nan nan nan nan nan nan nan nan nan
nan nan nan nan nan nan nan nan nan nan nan nan nan nan nan nan nan nan nan nan nan nan nan nan nan nan nan nan nan nan nan nan nan nan nan nan nan nan nan nan nan nan nan nan nan nan nan nan nan nan nan nan nan nan nan nan nan nan nan nan nan nan nan nan nan nan nan nan nan nan nan nan nan nan nan nan nan nan nan nan nan nan nan nan nan
nan nan nan nan nan nan nan nan nan nan nan nan nan nan nan nan nan nan nan nan nan nan nan nan nan nan nan nan nan nan nan nan nan nan nan nan nan nan nan nan nan nan nan nan nan nan nan nan nan nan nan nan nan nan nan nan nan nan nan nan nan nan nan nan nan nan nan nan nan nan nan nan nan nan nan nan nan nan nan nan nan nan nan nan nan
nan nan nan nan nan nan nan nan nan nan nan nan nan nan nan nan nan nan nan nan nan nan nan nan nan nan nan nan nan nan nan nan nan nan nan nan nan nan nan nan nan nan nan nan nan nan nan nan nan nan nan nan nan nan nan nan nan nan nan nan nan nan nan nan nan nan nan nan nan nan nan nan nan nan nan nan nan nan nan nan nan nan nan nan nan
nan nan nan nan nan nan nan nan nan nan nan nan nan nan nan nan nan nan nan nan nan nan nan nan nan nan nan nan nan nan nan nan nan nan nan nan nan nan nan nan nan nan nan nan nan nan nan nan nan nan nan nan nan nan nan nan nan nan nan nan nan nan nan nan nan nan nan nan nan nan nan nan nan nan nan nan nan nan nan nan nan nan nan nan nan
nan nan nan nan nan nan nan nan nan nan nan nan nan nan nan nan nan nan nan nan nan nan nan nan nan nan nan nan nan nan nan nan nan nan nan nan nan nan nan nan nan nan nan nan nan nan nan nan nan nan nan nan nan nan nan nan nan nan nan nan nan nan nan nan nan nan nan nan nan nan nan nan nan nan nan nan nan nan nan nan nan nan nan nan nan
nan nan nan nan nan nan nan nan nan nan nan nan nan nan nan nan nan nan nan nan nan nan nan nan nan nan nan nan nan nan nan nan nan nan nan nan nan nan nan nan nan nan nan nan nan nan nan nan nan nan nan nan nan nan nan nan nan nan nan nan nan nan nan nan nan nan nan nan nan nan nan nan nan nan nan nan nan nan nan nan nan nan nan nan nan